Location: Berg
(48.4333°N, 13.9167°E)
Time: 05:48:04
(UTC+00:00)

Lacrosse 5 rocket - Pass Details

Date: 18 September 2020
Orbit: 461 x 635 km, 57.0° (Epoch: 22 October)

Event Time Altitude Azimuth Distance (km) Brightness Sun altitude
Rises 19:47:48 0° 289° (WNW) 2,801 6.1 -25.4°
Reaches altitude 10° 19:50:18 10° 302° (WNW) 1,931 5.1 -25.7°
Maximum altitude 19:54:05 27° 1° (N) 1,187 3.3 -26.2°
Enters shadow 19:55:10 24° 25° (NNE) 1,274 3.2 -26.4°
